Regional Weather Roundup
Issued by NWS

Home | Current Version | Previous Version | Graphics & Text | Print | Product List | Glossary On
Versions: 1 2 3 4 5 6 7 8 9 10 11 12 13 14 15 16 17 18 19 20 21 22 23 24 25 26 27 28
000
ASUS45 KBOI 201810
RWRID

IDAHO REGIONAL WEATHER ROUNDUP
NATIONAL WEATHER SERVICE BOISE ID
1200 PM MDT FRI OCT 20 2017

NOTE: "FAIR" INDICATES FEW OR NO CLOUDS BELOW 12000 FEET
WITH NO SIGNIFICANT WEATHER AND/OR OBSTRUCTIONS TO VISIBILITY

IDZ012-014-201900-
SOUTHWEST IDAHO


CITY           SKY/WX    TMP DP  RH WIND       PRES   REMARKS
BOISE          LGT RAIN  45  38  76 NW17G35   29.81R
CALDWELL       PTSUNNY   50  36  58 SW25G38   29.79S
MOUNTAIN HOME  LGT RAIN  47  38  72 W17G29    29.80S
$$

IDZ016-017-201900-
SOUTHCENTRAL IDAHO


CITY           SKY/WX    TMP DP  RH WIND       PRES   REMARKS
BURLEY         LGT RAIN  39  36  89 W24G33    29.78R WCI  28
JEROME         LGT RAIN  39  39 100 W22G29    29.79R WCI  29
TWIN FALLS     LGT RAIN  42  38  85 W26G36    29.77F
$$

IDZ019>023-201900-
SOUTHEAST IDAHO


CITY           SKY/WX    TMP DP  RH WIND       PRES   REMARKS
IDAHO FALLS    CLOUDY    44  34  67 SW28G39   29.67R
POCATELLO      CLOUDY    44  34  67 SW29      29.73F
REXBURG        CLOUDY    43  35  73 S23G38    29.61R
$$

IDZ006-010-011-018-031-032-201900-
CENTRAL IDAHO MOUNTAINS


CITY           SKY/WX    TMP DP  RH WIND       PRES   REMARKS
MCCALL         CLOUDY    33  32  96 SE8       29.69R WCI  26
HAILEY         PTSUNNY   39  34  81 SW12G29   29.64R WCI  32
STANLEY          N/A     32  29  88 VRB6      29.67R WCI  26
SALMON         LGT RAIN  42  33  70 NE8       29.59R
CHALLIS        CLOUDY    45  34  65 SE8       29.54R
$$

IDZ002-004-006-007-026-201900-
NORTHERN IDAHO


CITY           SKY/WX    TMP DP  RH WIND       PRES   REMARKS
LEWISTON       CLOUDY    50  42  74 S3        29.68R
LOWELL           N/A     40  39  97 CALM      29.73R
COEUR D`ALENE  CLOUDY    44  40  85 SW15G22   29.61R
MULLAN PASS    SNOW      28  27  96 VRB5      29.54R VSB 1/4 WCI  23
$$




USA.gov is the U.S. government's official web portal to all federal, state and local government web resources and services.